owner,sensor,date,latitude,longitude,vertical_datum,direction_of_sea_water_velocity,sea_water_speed,upward_sea_water_velocity,qcFlag 
TABS,ioos:station:wmo:42050:1,2016-11-01T01:00:00Z,28.8425,-94.2433,2.0,264.1066825,11.88279428,-99999.0,'11111222,11111222,99999999' 
TABS,ioos:station:wmo:42050:1,2016-11-01T01:30:00Z,28.8425,-94.2433,2.0,256.7499574,10.77687339,-99999.0,'11111222,11111222,99999999' 
TABS,ioos:station:wmo:42050:1,2016-11-01T02:00:00Z,28.8425,-94.2433,2.0,256.1170708,11.75331868,-99999.0,'11111222,11111222,99999999' 
TABS,ioos:station:wmo:42050:1,2016-11-01T02:30:00Z,28.8425,-94.2433,2.0,265.8898793,11.86049746,-99999.0,'11111222,11111222,99999999' 
TABS,ioos:station:wmo:42050:1,2016-11-01T03:00:00Z,28.8425,-94.2433,2.0,253.7294575,9.208800139,-99999.0,'11133222,11111222,99999999' 
TABS,ioos:station:wmo:42050:1,2016-11-01T03:30:00Z,28.8425,-94.2433,2.0,270.5898615,9.72051439,-99999.0,'11133222,11111222,99999999' 
TABS,ioos:station:wmo:42050:1,2016-11-01T04:00:00Z,28.8425,-94.2433,2.0,259.2202695,10.80057869,-99999.0,'11111222,11111222,99999999' 
TABS,ioos:station:wmo:42050:1,2016-11-01T04:30:00Z,28.8425,-94.2433,2.0,277.8225195,8.155887444,-99999.0,'11133222,11111222,99999999' 
TABS,ioos:station:wmo:42050:1,2016-11-01T05:00:00Z,28.8425,-94.2433,2.0,280.2609311,11.56494704,-99999.0,'11111222,11111222,99999999' 
TABS,ioos:station:wmo:42050:1,2016-11-01T05:30:00Z,28.8425,-94.2433,2.0,267.7464863,9.157079229,-99999.0,'11133222,11111222,99999999' 
TABS,ioos:station:wmo:42050:1,2016-11-01T06:00:00Z,28.8425,-94.2433,2.0,288.6712717,9.214955236,-99999.0,'11133222,11111222,99999999' 
TABS,ioos:station:wmo:42050:1,2016-11-01T06:30:00Z,28.8425,-94.2433,2.0,256.6645039,12.48666889,-99999.0,'11111222,11111222,99999999' 
TABS,ioos:station:wmo:42050:1,2016-11-01T07:00:00Z,28.8425,-94.2433,2.0,258.5953099,13.09861443,-99999.0,'11111222,11111222,99999999' 
TABS,ioos:station:wmo:42050:1,2016-11-01T07:30:00Z,28.8425,-94.2433,2.0,259.1423165,17.62550708,-99999.0,'11111222,11111222,99999999' 
TABS,ioos:station:wmo:42050:1,2016-11-01T08:00:00Z,28.8425,-94.2433,2.0,253.2475216,14.53693572,-99999.0,'11111222,11111222,99999999' 
TABS,ioos:station:wmo:42050:1,2016-11-01T08:30:00Z,28.8425,-94.2433,2.0,245.7416561,15.5532794,-99999.0,'11111222,11111222,99999999' 
TABS,ioos:station:wmo:42050:1,2016-11-01T09:00:00Z,28.8425,-94.2433,2.0,242.4562016,16.50011515,-99999.0,'11111222,11111222,99999999' 
TABS,ioos:station:wmo:42050:1,2016-11-01T09:30:00Z,28.8425,-94.2433,2.0,235.5509584,15.29165132,-99999.0,'11111222,11111222,99999999' 
TABS,ioos:station:wmo:42050:1,2016-11-01T10:00:00Z,28.8425,-94.2433,2.0,238.1422597,22.9818907,-99999.0,'11111222,11111222,99999999' 
TABS,ioos:station:wmo:42050:1,2016-11-01T10:30:00Z,28.8425,-94.2433,2.0,239.9647039,32.5855827,-99999.0,'11111222,11111222,99999999' 
TABS,ioos:station:wmo:42050:1,2016-11-01T11:00:00Z,28.8425,-94.2433,2.0,232.4333577,30.6062608,-99999.0,'11111222,11111222,99999999' 
TABS,ioos:station:wmo:42050:1,2016-11-01T11:30:00Z,28.8425,-94.2433,2.0,233.021693,28.62805093,-99999.0,'11111222,11111222,99999999' 
TABS,ioos:station:wmo:42050:1,2016-11-01T12:00:00Z,28.8425,-94.2433,2.0,232.9489498,24.08211992,-99999.0,'11111222,11111222,99999999' 
TABS,ioos:station:wmo:42050:1,2016-11-01T12:30:00Z,28.8425,-94.2433,2.0,232.6631015,20.62668417,-99999.0,'11111222,11111222,99999999' 
TABS,ioos:station:wmo:42050:1,2016-11-01T13:00:00Z,28.8425,-94.2433,2.0,237.4154537,19.83145229,-99999.0,'11111222,11111222,99999999' 
TABS,ioos:station:wmo:42050:1,2016-11-01T13:30:00Z,28.8425,-94.2433,2.0,235.8614521,21.27617682,-99999.0,'11111222,11111222,99999999' 
TABS,ioos:station:wmo:42050:1,2016-11-01T14:00:00Z,28.8425,-94.2433,2.0,235.9557148,19.30948213,-99999.0,'11111222,11111222,99999999' 
TABS,ioos:station:wmo:42050:1,2016-11-01T14:30:00Z,28.8425,-94.2433,2.0,246.0690346,21.89188206,-99999.0,'11111222,11111222,99999999' 
TABS,ioos:station:wmo:42050:1,2016-11-01T15:00:00Z,28.8425,-94.2433,2.0,248.2078541,22.08846079,-99999.0,'11111222,11111222,99999999' 
TABS,ioos:station:wmo:42050:1,2016-11-01T15:30:00Z,28.8425,-94.2433,2.0,248.3722776,20.78311815,-99999.0,'11111222,11111222,99999999' 
TABS,ioos:station:wmo:42050:1,2016-11-01T16:00:00Z,28.8425,-94.2433,2.0,255.1263372,21.58312304,-99999.0,'11111222,11111222,99999999' 
TABS,ioos:station:wmo:42050:1,2016-11-01T16:30:00Z,28.8425,-94.2433,2.0,251.5726946,22.58814955,-99999.0,'11111222,11111222,99999999' 
TABS,ioos:station:wmo:42050:1,2016-11-01T17:00:00Z,28.8425,-94.2433,2.0,250.405671,21.88743932,-99999.0,'11111222,11111222,99999999' 
TABS,ioos:station:wmo:42050:1,2016-11-01T17:30:00Z,28.8425,-94.2433,2.0,249.6935413,23.34056769,-99999.0,'11111222,11111222,99999999' 
TABS,ioos:station:wmo:42050:1,2016-11-01T18:00:00Z,28.8425,-94.2433,2.0,258.7055811,21.19034922,-99999.0,'11111222,11111222,99999999' 
TABS,ioos:station:wmo:42050:1,2016-11-01T18:30:00Z,28.8425,-94.2433,2.0,258.4670124,28.26054847,-99999.0,'11111222,11111222,99999999' 
TABS,ioos:station:wmo:42050:1,2016-11-01T19:00:00Z,28.8425,-94.2433,2.0,254.3224476,24.64687607,-99999.0,'11111222,11111222,99999999' 
TABS,ioos:station:wmo:42050:1,2016-11-01T19:30:00Z,28.8425,-94.2433,2.0,254.7250276,23.2306371,-99999.0,'11111222,11111222,99999999' 
TABS,ioos:station:wmo:42050:1,2016-11-01T20:00:00Z,28.8425,-94.2433,2.0,251.7742268,20.75100479,-99999.0,'11111222,11111222,99999999' 
TABS,ioos:station:wmo:42050:1,2016-11-01T20:30:00Z,28.8425,-94.2433,2.0,263.9836025,12.88093941,-99999.0,'11111222,11111222,99999999' 
TABS,ioos:station:wmo:42050:1,2016-11-01T21:00:00Z,28.8425,-94.2433,2.0,313.4807999,11.46623303,-99999.0,'11111222,11111222,99999999' 
TABS,ioos:station:wmo:42050:1,2016-11-01T21:30:00Z,28.8425,-94.2433,2.0,327.3793122,11.14864117,-99999.0,'11111222,11111222,99999999' 
TABS,ioos:station:wmo:42050:1,2016-11-01T22:00:00Z,28.8425,-94.2433,2.0,335.3288059,10.4212955,-99999.0,'11111222,11111222,99999999' 
TABS,ioos:station:wmo:42050:1,2016-11-01T22:30:00Z,28.8425,-94.2433,2.0,322.6300131,9.160349338,-99999.0,'11133222,11111222,99999999' 
TABS,ioos:station:wmo:42050:1,2016-11-01T23:00:00Z,28.8425,-94.2433,2.0,338.3587578,8.649722539,-99999.0,'11133222,11111222,99999999' 
TABS,ioos:station:wmo:42050:1,2016-11-01T23:30:00Z,28.8425,-94.2433,2.0,324.1711116,9.139507645,-99999.0,'11133222,11111222,99999999' 
TABS,ioos:station:wmo:42050:1,2016-11-02T00:00:00Z,28.8425,-94.2433,2.0,306.1606819,8.236631593,-99999.0,'11133222,11111222,99999999' 
TABS,ioos:station:wmo:42050:1,2016-11-02T00:30:00Z,28.8425,-94.2433,2.0,297.3242483,8.104221122,-99999.0,'11133222,11111222,99999999' 
TABS,ioos:station:wmo:42050:1,2016-11-02T01:00:00Z,28.8425,-94.2433,2.0,300.3105709,7.668200571,-99999.0,'11133222,11111222,99999999' 
TABS,ioos:station:wmo:42050:1,2016-11-02T01:30:00Z,28.8425,-94.2433,2.0,307.8273498,8.381169369,-99999.0,'11133222,11111222,99999999' 
TABS,ioos:station:wmo:42050:1,2016-11-02T02:00:00Z,28.8425,-94.2433,2.0,291.7761495,8.302439401,-99999.0,'11133222,11111222,99999999' 
TABS,ioos:station:wmo:42050:1,2016-11-02T02:30:00Z,28.8425,-94.2433,2.0,297.8754203,9.389467504,-99999.0,'11133222,11111222,99999999' 
TABS,ioos:station:wmo:42050:1,2016-11-02T03:00:00Z,28.8425,-94.2433,2.0,283.522176,10.26452142,-99999.0,'11111222,11111222,99999999' 
TABS,ioos:station:wmo:42050:1,2016-11-02T03:30:00Z,28.8425,-94.2433,2.0,303.5854487,12.11189911,-99999.0,'11111222,11111222,99999999' 
TABS,ioos:station:wmo:42050:1,2016-11-02T04:00:00Z,28.8425,-94.2433,2.0,300.3081768,11.23560857,-99999.0,'11111222,11111222,99999999' 
TABS,ioos:station:wmo:42050:1,2016-11-02T04:30:00Z,28.8425,-94.2433,2.0,294.3519775,11.81077898,-99999.0,'11111222,11111222,99999999' 
TABS,ioos:station:wmo:42050:1,2016-11-02T05:00:00Z,28.8425,-94.2433,2.0,301.1366298,11.39098767,-99999.0,'11111222,11111222,99999999' 
TABS,ioos:station:wmo:42050:1,2016-11-02T05:30:00Z,28.8425,-94.2433,2.0,300.7964109,12.30507619,-99999.0,'11111222,11111222,99999999' 
TABS,ioos:station:wmo:42050:1,2016-11-02T06:00:00Z,28.8425,-94.2433,2.0,289.8154948,11.94738884,-99999.0,'11111222,11111222,99999999' 
TABS,ioos:station:wmo:42050:1,2016-11-02T06:30:00Z,28.8425,-94.2433,2.0,287.6403751,9.800841801,-99999.0,'11133222,11111222,99999999' 
TABS,ioos:station:wmo:42050:1,2016-11-02T07:00:00Z,28.8425,-94.2433,2.0,279.456219,14.48683885,-99999.0,'11111222,11111222,99999999' 
TABS,ioos:station:wmo:42050:1,2016-11-02T07:30:00Z,28.8425,-94.2433,2.0,276.9804325,11.27355312,-99999.0,'11111222,11111222,99999999' 
TABS,ioos:station:wmo:42050:1,2016-11-02T08:00:00Z,28.8425,-94.2433,2.0,269.2512703,12.25104485,-99999.0,'11111222,11111222,99999999' 
TABS,ioos:station:wmo:42050:1,2016-11-02T08:30:00Z,28.8425,-94.2433,2.0,269.9542861,12.65000395,-99999.0,'11111222,11111222,99999999' 
TABS,ioos:station:wmo:42050:1,2016-11-02T09:00:00Z,28.8425,-94.2433,2.0,266.0955914,14.83442281,-99999.0,'11111222,11111222,99999999' 
TABS,ioos:station:wmo:42050:1,2016-11-02T09:30:00Z,28.8425,-94.2433,2.0,254.5215314,15.32582787,-99999.0,'11111222,11111222,99999999' 
TABS,ioos:station:wmo:42050:1,2016-11-02T10:00:00Z,28.8425,-94.2433,2.0,258.696347,16.83657032,-99999.0,'11111222,11111222,99999999' 
TABS,ioos:station:wmo:42050:1,2016-11-02T10:30:00Z,28.8425,-94.2433,2.0,245.1602405,19.30602238,-99999.0,'11111222,11111222,99999999' 
TABS,ioos:station:wmo:42050:1,2016-11-02T11:00:00Z,28.8425,-94.2433,2.0,247.6133226,20.19170622,-99999.0,'11111222,11111222,99999999' 
TABS,ioos:station:wmo:42050:1,2016-11-02T11:30:00Z,28.8425,-94.2433,2.0,254.5165737,23.15012959,-99999.0,'11111222,11111222,99999999' 
TABS,ioos:station:wmo:42050:1,2016-11-02T12:00:00Z,28.8425,-94.2433,2.0,244.0262797,25.55067514,-99999.0,'11111222,11111222,99999999' 
TABS,ioos:station:wmo:42050:1,2016-11-02T12:30:00Z,28.8425,-94.2433,2.0,237.5906402,23.32265208,-99999.0,'11111222,11111222,99999999' 
TABS,ioos:station:wmo:42050:1,2016-11-02T13:00:00Z,28.8425,-94.2433,2.0,236.2538078,22.78986836,-99999.0,'11111222,11111222,99999999' 
TABS,ioos:station:wmo:42050:1,2016-11-02T13:30:00Z,28.8425,-94.2433,2.0,241.9730098,19.11118259,-99999.0,'11111222,11111222,99999999' 
TABS,ioos:station:wmo:42050:1,2016-11-02T14:00:00Z,28.8425,-94.2433,2.0,241.4829379,23.89954184,-99999.0,'11111222,11111222,99999999' 
TABS,ioos:station:wmo:42050:1,2016-11-02T14:30:00Z,28.8425,-94.2433,2.0,261.957134,28.6618998,-99999.0,'11111222,11111222,99999999' 
TABS,ioos:station:wmo:42050:1,2016-11-02T15:00:00Z,28.8425,-94.2433,2.0,263.223329,27.71359414,-99999.0,'11111222,11111222,99999999' 
TABS,ioos:station:wmo:42050:1,2016-11-02T15:30:00Z,28.8425,-94.2433,2.0,274.5289038,34.19675569,-99999.0,'11111222,11111222,99999999' 
TABS,ioos:station:wmo:42050:1,2016-11-02T16:00:00Z,28.8425,-94.2433,2.0,280.2192415,33.36932723,-99999.0,'11111222,11111222,99999999' 
TABS,ioos:station:wmo:42050:1,2016-11-02T16:30:00Z,28.8425,-94.2433,2.0,280.2379834,36.57225861,-99999.0,'11111222,11111222,99999999' 
TABS,ioos:station:wmo:42050:1,2016-11-02T17:00:00Z,28.8425,-94.2433,2.0,282.1422291,34.84958823,-99999.0,'11111222,11111222,99999999' 
TABS,ioos:station:wmo:42050:1,2016-11-02T17:30:00Z,28.8425,-94.2433,2.0,281.5866008,33.75786279,-99999.0,'11111222,11111222,99999999' 
TABS,ioos:station:wmo:42050:1,2016-11-02T18:00:00Z,28.8425,-94.2433,2.0,287.8806595,33.31931872,-99999.0,'11111222,11111222,99999999' 
TABS,ioos:station:wmo:42050:1,2016-11-02T18:30:00Z,28.8425,-94.2433,2.0,287.0927493,32.52663063,-99999.0,'11111222,11111222,99999999' 
TABS,ioos:station:wmo:42050:1,2016-11-02T19:00:00Z,28.8425,-94.2433,2.0,284.4173418,33.21598711,-99999.0,'11111222,11111222,99999999' 
TABS,ioos:station:wmo:42050:1,2016-11-02T19:30:00Z,28.8425,-94.2433,2.0,285.3995191,22.33172183,-99999.0,'11111222,11111222,99999999' 
TABS,ioos:station:wmo:42050:1,2016-11-02T20:00:00Z,28.8425,-94.2433,2.0,295.5570099,20.32900637,-99999.0,'11111222,11111222,99999999' 
TABS,ioos:station:wmo:42050:1,2016-11-02T20:30:00Z,28.8425,-94.2433,2.0,304.7475172,20.89633939,-99999.0,'11111222,11111222,99999999' 
TABS,ioos:station:wmo:42050:1,2016-11-02T21:00:00Z,28.8425,-94.2433,2.0,303.342704,22.85129537,-99999.0,'11111222,11111222,99999999' 
TABS,ioos:station:wmo:42050:1,2016-11-02T21:30:00Z,28.8425,-94.2433,2.0,292.39181,19.29476872,-99999.0,'11111222,11111222,99999999' 
TABS,ioos:station:wmo:42050:1,2016-11-02T22:00:00Z,28.8425,-94.2433,2.0,295.3792432,17.49874567,-99999.0,'11111222,11111222,99999999' 
TABS,ioos:station:wmo:42050:1,2016-11-02T22:30:00Z,28.8425,-94.2433,2.0,288.5448784,16.53874239,-99999.0,'11111222,11111222,99999999' 
TABS,ioos:station:wmo:42050:1,2016-11-02T23:00:00Z,28.8425,-94.2433,2.0,287.6272011,17.04004695,-99999.0,'11111222,11111222,99999999' 
TABS,ioos:station:wmo:42050:1,2016-11-02T23:30:00Z,28.8425,-94.2433,2.0,287.6107351,15.60113137,-99999.0,'11111222,11111222,99999999' 
TABS,ioos:station:wmo:42050:1,2016-11-03T00:00:00Z,28.8425,-94.2433,2.0,285.0002143,14.56632418,-99999.0,'11111222,11111222,99999999' 
TABS,ioos:station:wmo:42050:1,2016-11-03T00:30:00Z,28.8425,-94.2433,2.0,281.0305053,16.46414589,-99999.0,'11111222,11111222,99999999' 
TABS,ioos:station:wmo:42050:1,2016-11-03T01:00:00Z,28.8425,-94.2433,2.0,272.9158947,16.71163068,-99999.0,'11111222,11111222,99999999' 
TABS,ioos:station:wmo:42050:1,2016-11-03T01:30:00Z,28.8425,-94.2433,2.0,267.6518092,15.62311429,-99999.0,'11111222,11111222,99999999' 
TABS,ioos:station:wmo:42050:1,2016-11-03T02:00:00Z,28.8425,-94.2433,2.0,251.6134356,18.57838798,-99999.0,'11111222,11111222,99999999' 
TABS,ioos:station:wmo:42050:1,2016-11-03T02:30:00Z,28.8425,-94.2433,2.0,254.9654761,17.96491303,-99999.0,'11111222,11111222,99999999' 
TABS,ioos:station:wmo:42050:1,2016-11-03T03:00:00Z,28.8425,-94.2433,2.0,256.0867932,15.76242684,-99999.0,'11111222,11111222,99999999' 
TABS,ioos:station:wmo:42050:1,2016-11-03T03:30:00Z,28.8425,-94.2433,2.0,249.5467206,16.25470086,-99999.0,'11111222,11111222,99999999' 
TABS,ioos:station:wmo:42050:1,2016-11-03T04:00:00Z,28.8425,-94.2433,2.0,250.8713606,14.37360428,-99999.0,'11111222,11111222,99999999' 
TABS,ioos:station:wmo:42050:1,2016-11-03T04:30:00Z,28.8425,-94.2433,2.0,287.6091935,13.8174274,-99999.0,'11111222,11111222,99999999' 
TABS,ioos:station:wmo:42050:1,2016-11-03T05:00:00Z,28.8425,-94.2433,2.0,272.1571395,14.88054098,-99999.0,'11111222,11111222,99999999' 
TABS,ioos:station:wmo:42050:1,2016-11-03T05:30:00Z,28.8425,-94.2433,2.0,275.172212,13.75600233,-99999.0,'11111222,11111222,99999999' 
TABS,ioos:station:wmo:42050:1,2016-11-03T06:00:00Z,28.8425,-94.2433,2.0,261.8633303,13.14228671,-99999.0,'11111222,11111222,99999999' 
TABS,ioos:station:wmo:42050:1,2016-11-03T06:30:00Z,28.8425,-94.2433,2.0,263.9996734,13.20232177,-99999.0,'11111222,11111222,99999999' 
TABS,ioos:station:wmo:42050:1,2016-11-03T07:00:00Z,28.8425,-94.2433,2.0,267.9810104,14.47898477,-99999.0,'11111222,11111222,99999999' 
TABS,ioos:station:wmo:42050:1,2016-11-03T07:30:00Z,28.8425,-94.2433,2.0,271.10432,15.05279376,-99999.0,'11111222,11111222,99999999' 
TABS,ioos:station:wmo:42050:1,2016-11-03T08:00:00Z,28.8425,-94.2433,2.0,271.0704097,12.85224105,-99999.0,'11111222,11111222,99999999' 
TABS,ioos:station:wmo:42050:1,2016-11-03T08:30:00Z,28.8425,-94.2433,2.0,265.9933572,13.88392596,-99999.0,'11111222,11111222,99999999' 
TABS,ioos:station:wmo:42050:1,2016-11-03T09:00:00Z,28.8425,-94.2433,2.0,268.4449641,14.3752913,-99999.0,'11111222,11111222,99999999' 
TABS,ioos:station:wmo:42050:1,2016-11-03T09:30:00Z,28.8425,-94.2433,2.0,259.6300851,15.0559025,-99999.0,'11111222,11111222,99999999' 
TABS,ioos:station:wmo:42050:1,2016-11-03T10:00:00Z,28.8425,-94.2433,2.0,244.7936135,12.44498292,-99999.0,'11111222,11111222,99999999' 
TABS,ioos:station:wmo:42050:1,2016-11-03T10:30:00Z,28.8425,-94.2433,2.0,251.3140148,13.73390331,-99999.0,'11111222,11111222,99999999' 
TABS,ioos:station:wmo:42050:1,2016-11-03T11:00:00Z,28.8425,-94.2433,2.0,245.3114209,16.11280547,-99999.0,'11111222,11111222,99999999' 
TABS,ioos:station:wmo:42050:1,2016-11-03T11:30:00Z,28.8425,-94.2433,2.0,236.7889351,18.89652349,-99999.0,'11111222,11111222,99999999' 
TABS,ioos:station:wmo:42050:1,2016-11-03T12:00:00Z,28.8425,-94.2433,2.0,237.2939188,15.17606339,-99999.0,'11111222,11111222,99999999' 
TABS,ioos:station:wmo:42050:1,2016-11-03T12:30:00Z,28.8425,-94.2433,2.0,243.6426847,18.47004331,-99999.0,'11111222,11111222,99999999' 
TABS,ioos:station:wmo:42050:1,2016-11-03T13:00:00Z,28.8425,-94.2433,2.0,247.8585352,25.6839736,-99999.0,'11111222,11111222,99999999' 
TABS,ioos:station:wmo:42050:1,2016-11-03T13:30:00Z,28.8425,-94.2433,2.0,238.4231307,21.80900731,-99999.0,'11111222,11111222,99999999' 
TABS,ioos:station:wmo:42050:1,2016-11-03T14:00:00Z,28.8425,-94.2433,2.0,235.258412,19.65356202,-99999.0,'11111222,11111222,99999999' 
TABS,ioos:station:wmo:42050:1,2016-11-03T14:30:00Z,28.8425,-94.2433,2.0,240.414069,17.39841947,-99999.0,'11111222,11111222,99999999' 
TABS,ioos:station:wmo:42050:1,2016-11-03T15:00:00Z,28.8425,-94.2433,2.0,242.6445649,16.86602799,-99999.0,'11111222,11111222,99999999' 
TABS,ioos:station:wmo:42050:1,2016-11-03T15:30:00Z,28.8425,-94.2433,2.0,244.9106802,14.40953157,-99999.0,'11111222,11111222,99999999' 
TABS,ioos:station:wmo:42050:1,2016-11-03T16:00:00Z,28.8425,-94.2433,2.0,258.1844017,12.45385884,-99999.0,'11111222,11111222,99999999' 
TABS,ioos:station:wmo:42050:1,2016-11-03T16:30:00Z,28.8425,-94.2433,2.0,262.833482,12.10455286,-99999.0,'11111222,11111222,99999999' 
TABS,ioos:station:wmo:42050:1,2016-11-03T17:00:00Z,28.8425,-94.2433,2.0,273.9960143,11.33755706,-99999.0,'11111222,11111222,99999999' 
TABS,ioos:station:wmo:42050:1,2016-11-03T17:30:00Z,28.8425,-94.2433,2.0,285.709022,11.6345391,-99999.0,'11111222,11111222,99999999' 
TABS,ioos:station:wmo:42050:1,2016-11-03T18:00:00Z,28.8425,-94.2433,2.0,295.5550095,12.68047712,-99999.0,'11111222,11111222,99999999' 
TABS,ioos:station:wmo:42050:1,2016-11-03T18:30:00Z,28.8425,-94.2433,2.0,304.8507083,10.27238044,-99999.0,'11111222,11111222,99999999' 
TABS,ioos:station:wmo:42050:1,2016-11-03T19:00:00Z,28.8425,-94.2433,2.0,310.4918152,13.58312556,-99999.0,'11111222,11111222,99999999' 
TABS,ioos:station:wmo:42050:1,2016-11-03T19:30:00Z,28.8425,-94.2433,2.0,313.8374228,13.23976586,-99999.0,'11111222,11111222,99999999' 
TABS,ioos:station:wmo:42050:1,2016-11-03T20:00:00Z,28.8425,-94.2433,2.0,314.2257364,15.16882659,-99999.0,'11111222,11111222,99999999' 
TABS,ioos:station:wmo:42050:1,2016-11-03T20:30:00Z,28.8425,-94.2433,2.0,313.3681121,15.8880647,-99999.0,'11111222,11111222,99999999' 
TABS,ioos:station:wmo:42050:1,2016-11-03T21:00:00Z,28.8425,-94.2433,2.0,315.7029027,12.68644946,-99999.0,'11111222,11111222,99999999' 
TABS,ioos:station:wmo:42050:1,2016-11-03T21:30:00Z,28.8425,-94.2433,2.0,296.2572535,11.64113826,-99999.0,'11111222,11111222,99999999' 
TABS,ioos:station:wmo:42050:1,2016-11-03T22:00:00Z,28.8425,-94.2433,2.0,300.964105,10.02923726,-99999.0,'11111222,11111222,99999999' 
TABS,ioos:station:wmo:42050:1,2016-11-03T22:30:00Z,28.8425,-94.2433,2.0,294.1621605,11.09170861,-99999.0,'11111222,11111222,99999999' 
TABS,ioos:station:wmo:42050:1,2016-11-03T23:00:00Z,28.8425,-94.2433,2.0,284.3264668,10.54800929,-99999.0,'11111222,11111222,99999999' 
TABS,ioos:station:wmo:42050:1,2016-11-03T23:30:00Z,28.8425,-94.2433,2.0,271.5900863,10.81416201,-99999.0,'11111222,11111222,99999999' 
TABS,ioos:station:wmo:42050:1,2016-11-04T00:00:00Z,28.8425,-94.2433,2.0,257.45142,9.619781702,-99999.0,'11133222,11111222,99999999' 
TABS,ioos:station:wmo:42050:1,2016-11-04T00:30:00Z,28.8425,-94.2433,2.0,263.4931476,12.17843997,-99999.0,'11111222,11111222,99999999' 
TABS,ioos:station:wmo:42050:1,2016-11-04T01:00:00Z,28.8425,-94.2433,2.0,277.1462705,17.04237366,-99999.0,'11111222,11111222,99999999' 
TABS,ioos:station:wmo:42050:1,2016-11-04T01:30:00Z,28.8425,-94.2433,2.0,296.4233885,12.62935074,-99999.0,'11111222,11111222,99999999' 
TABS,ioos:station:wmo:42050:1,2016-11-04T02:00:00Z,28.8425,-94.2433,2.0,302.4739924,17.89866196,-99999.0,'11111222,11111222,99999999' 
TABS,ioos:station:wmo:42050:1,2016-11-04T02:30:00Z,28.8425,-94.2433,2.0,303.5734481,20.37972767,-99999.0,'11111222,11111222,99999999' 
TABS,ioos:station:wmo:42050:1,2016-11-04T03:00:00Z,28.8425,-94.2433,2.0,295.6118769,19.61750494,-99999.0,'11111222,11111222,99999999' 
TABS,ioos:station:wmo:42050:1,2016-11-04T03:30:00Z,28.8425,-94.2433,2.0,298.3394867,21.23493584,-99999.0,'11111222,11111222,99999999' 
TABS,ioos:station:wmo:42050:1,2016-11-04T04:00:00Z,28.8425,-94.2433,2.0,294.8169569,27.99518887,-99999.0,'11111222,11111222,99999999' 
TABS,ioos:station:wmo:42050:1,2016-11-04T04:30:00Z,28.8425,-94.2433,2.0,295.2656889,31.34879424,-99999.0,'11111222,11111222,99999999' 
TABS,ioos:station:wmo:42050:1,2016-11-04T05:00:00Z,28.8425,-94.2433,2.0,296.0678405,27.80878998,-99999.0,'11111222,11111222,99999999' 
TABS,ioos:station:wmo:42050:1,2016-11-04T05:30:00Z,28.8425,-94.2433,2.0,296.7198453,24.887527,-99999.0,'11111222,11111222,99999999' 
TABS,ioos:station:wmo:42050:1,2016-11-04T06:00:00Z,28.8425,-94.2433,2.0,298.4173842,22.69452797,-99999.0,'11111222,11111222,99999999' 
TABS,ioos:station:wmo:42050:1,2016-11-04T06:30:00Z,28.8425,-94.2433,2.0,301.4537995,23.87862014,-99999.0,'11111222,11111222,99999999' 
TABS,ioos:station:wmo:42050:1,2016-11-04T07:00:00Z,28.8425,-94.2433,2.0,299.1356952,23.43520855,-99999.0,'11111222,11111222,99999999' 
TABS,ioos:station:wmo:42050:1,2016-11-04T07:30:00Z,28.8425,-94.2433,2.0,300.1183028,21.14464944,-99999.0,'11111222,11111222,99999999' 
TABS,ioos:station:wmo:42050:1,2016-11-04T08:00:00Z,28.8425,-94.2433,2.0,298.9309791,21.99481984,-99999.0,'11111222,11111222,99999999' 
TABS,ioos:station:wmo:42050:1,2016-11-04T08:30:00Z,28.8425,-94.2433,2.0,296.9338656,20.86294562,-99999.0,'11111222,11111222,99999999' 
TABS,ioos:station:wmo:42050:1,2016-11-04T09:00:00Z,28.8425,-94.2433,2.0,287.120967,21.23079367,-99999.0,'11111222,11111222,99999999' 
TABS,ioos:station:wmo:42050:1,2016-11-04T09:30:00Z,28.8425,-94.2433,2.0,283.0499887,25.77565712,-99999.0,'11111222,11111222,99999999' 
TABS,ioos:station:wmo:42050:1,2016-11-04T10:00:00Z,28.8425,-94.2433,2.0,276.7600564,29.56552046,-99999.0,'11111222,11111222,99999999' 
TABS,ioos:station:wmo:42050:1,2016-11-04T10:30:00Z,28.8425,-94.2433,2.0,276.3385494,30.88880218,-99999.0,'11111222,11111222,99999999' 
TABS,ioos:station:wmo:42050:1,2016-11-04T11:00:00Z,28.8425,-94.2433,2.0,273.8715252,30.06860323,-99999.0,'11111222,11111222,99999999' 
TABS,ioos:station:wmo:42050:1,2016-11-04T11:30:00Z,28.8425,-94.2433,2.0,272.2241987,31.18348441,-99999.0,'11111222,11111222,99999999' 
TABS,ioos:station:wmo:42050:1,2016-11-04T12:00:00Z,28.8425,-94.2433,2.0,268.1031803,32.93804032,-99999.0,'11111222,11111222,99999999' 
TABS,ioos:station:wmo:42050:1,2016-11-04T12:30:00Z,28.8425,-94.2433,2.0,265.0754449,33.20254358,-99999.0,'11111222,11111222,99999999' 
TABS,ioos:station:wmo:42050:1,2016-11-04T13:00:00Z,28.8425,-94.2433,2.0,262.2099013,32.61092608,-99999.0,'11111222,11111222,99999999' 
TABS,ioos:station:wmo:42050:1,2016-11-04T13:30:00Z,28.8425,-94.2433,2.0,257.9234548,32.26398921,-99999.0,'11111222,11111222,99999999' 
TABS,ioos:station:wmo:42050:1,2016-11-04T14:00:00Z,28.8425,-94.2433,2.0,256.2402404,32.12179323,-99999.0,'11111222,11111222,99999999' 
TABS,ioos:station:wmo:42050:1,2016-11-04T14:30:00Z,28.8425,-94.2433,2.0,256.6728092,32.32034963,-99999.0,'11111222,11111222,99999999' 
TABS,ioos:station:wmo:42050:1,2016-11-04T15:00:00Z,28.8425,-94.2433,2.0,254.1922377,34.21386853,-99999.0,'11111222,11111222,99999999' 
TABS,ioos:station:wmo:42050:1,2016-11-04T15:30:00Z,28.8425,-94.2433,2.0,253.8597023,36.00927936,-99999.0,'11111222,11111222,99999999' 
TABS,ioos:station:wmo:42050:1,2016-11-04T16:00:00Z,28.8425,-94.2433,2.0,252.6203522,36.55897291,-99999.0,'11111222,11111222,99999999' 
TABS,ioos:station:wmo:42050:1,2016-11-04T16:30:00Z,28.8425,-94.2433,2.0,251.3735743,36.97671835,-99999.0,'11111222,11111222,99999999' 
TABS,ioos:station:wmo:42050:1,2016-11-04T17:00:00Z,28.8425,-94.2433,2.0,252.0666118,34.65356836,-99999.0,'11111222,11111222,99999999' 